TimePDT,TemperatureF,Dew PointF,Humidity,Sea Level PressureIn,VisibilityMPH,Wind Direction,Wind SpeedMPH,Gust SpeedMPH,PrecipitationIn,Events,Conditions,WindDirDegrees,DateUTC
12:53 AM,42.1,33.1,70,29.80,8.0,SE,5.8,-,0.01,Rain,Light Rain,130,2013-03-20 07:53:00
1:53 AM,41.0,37.0,86,29.75,10.0,ESE,5.8,-,0.03,,Overcast,110,2013-03-20 08:53:00
2:53 AM,42.1,37.0,82,29.74,9.0,South,8.1,-,0.00,Rain,Light Rain,190,2013-03-20 09:53:00
3:53 AM,42.1,37.9,85,29.70,7.0,South,9.2,-,0.04,Rain,Light Rain,180,2013-03-20 10:53:00
4:53 AM,41.0,39.9,96,29.67,7.0,SE,10.4,-,0.06,Rain,Light Rain,140,2013-03-20 11:53:00
5:45 AM,41.0,39.2,93,29.63,7.0,SSE,15.0,-,0.03,Rain,Light Rain,150,2013-03-20 12:45:00
5:53 AM,41.0,39.0,93,29.65,7.0,SSE,16.1,-,0.03,Rain,Light Rain,150,2013-03-20 12:53:00
6:33 AM,42.8,39.2,87,29.61,10.0,SSE,17.3,23.0,0.00,Rain,Light Rain,150,2013-03-20 13:33:00
6:53 AM,42.1,39.0,89,29.63,9.0,SSE,17.3,-,0.00,Rain,Light Rain,150,2013-03-20 13:53:00
7:32 AM,42.8,39.2,87,29.60,7.0,SSE,16.1,-,0.02,Rain,Light Rain,150,2013-03-20 14:32:00
7:53 AM,42.1,39.0,89,29.61,10.0,SSE,17.3,-,0.02,Rain,Light Rain,150,2013-03-20 14:53:00
8:53 AM,43.0,39.9,89,29.60,10.0,SSE,13.8,21.9,0.02,Rain,Light Rain,150,2013-03-20 15:53:00
9:53 AM,44.1,41.0,89,29.57,9.0,SSE,16.1,-,0.02,Rain,Light Rain,150,2013-03-20 16:53:00
10:53 AM,46.9,43.0,86,29.55,9.0,SSE,13.8,24.2,0.00,Rain,Light Rain,160,2013-03-20 17:53:00
11:53 AM,50.0,45.0,83,29.52,10.0,SSE,10.4,-,0.02,Rain,Light Rain,160,2013-03-20 18:53:00
12:53 PM,48.0,45.0,89,29.51,3.0,SW,16.1,-,0.03,Rain,Rain,230,2013-03-20 19:53:00
1:02 PM,48.2,44.6,87,29.51,2.0,SW,18.4,24.2,0.03,Rain,Rain,230,2013-03-20 20:02:00
1:14 PM,46.4,42.8,87,29.49,3.0,SW,25.3,31.1,0.07,Rain,Light Rain,220,2013-03-20 20:14:00
1:25 PM,48.2,42.8,82,29.48,8.0,SW,25.3,34.5,0.07,Rain,Light Rain,230,2013-03-20 20:25:00
1:53 PM,48.9,42.1,77,29.49,10.0,SW,29.9,38.0,0.07,,Mostly Cloudy,230,2013-03-20 20:53:00
2:53 PM,46.9,41.0,80,29.52,10.0,SW,25.3,33.4,0.00,,Overcast,230,2013-03-20 21:53:00
3:53 PM,46.9,41.0,80,29.53,10.0,SSW,25.3,31.1,N/A,,Overcast,210,2013-03-20 22:53:00
4:17 PM,46.4,41.0,81,29.52,10.0,SSW,20.7,29.9,0.00,Rain,Light Rain,210,2013-03-20 23:17:00
4:30 PM,42.8,35.6,76,29.54,4.0,WSW,27.6,46.0,0.00,Rain,Heavy Ice Pellets,240,2013-03-20 23:30:00
4:45 PM,42.8,37.4,81,29.53,7.0,SSW,23.0,36.8,0.07,Rain,Light Rain,210,2013-03-20 23:45:00
4:53 PM,46.0,37.9,73,29.55,10.0,SW,26.5,32.2,0.07,Rain,Light Rain,220,2013-03-20 23:53:00
5:53 PM,46.0,32.0,58,29.58,10.0,WSW,18.4,29.9,0.00,Rain,Light Rain,240,2013-03-21 00:53:00
6:53 PM,43.0,32.0,65,29.61,10.0,SW,17.3,-,0.00,,Scattered Clouds,220,2013-03-21 01:53:00
7:53 PM,41.0,28.0,60,29.66,10.0,SW,21.9,-,N/A,,Scattered Clouds,230,2013-03-21 02:53:00
8:53 PM,39.9,28.9,65,29.69,10.0,SW,23.0,28.8,N/A,,Scattered Clouds,230,2013-03-21 03:53:00
9:53 PM,37.9,27.0,65,29.72,10.0,SW,21.9,29.9,N/A,,Scattered Clouds,220,2013-03-21 04:53:00
10:53 PM,36.0,28.9,76,29.73,10.0,SW,24.2,33.4,N/A,,Mostly Cloudy,220,2013-03-21 05:53:00
11:53 PM,34.0,28.9,82,29.78,10.0,SSW,20.7,27.6,N/A,,Mostly Cloudy,210,2013-03-21 06:53:00